Year,Month,Day,Hour,Minute,Value (Times are PST for temperature in C)
2019,04,27,00,00,6.80
2019,04,27,00,01,6.80
2019,04,27,00,02,6.80
2019,04,27,00,03,6.90
2019,04,27,00,04,6.90
2019,04,27,00,05,6.90
2019,04,27,00,06,6.90
2019,04,27,00,07,6.90
2019,04,27,00,08,6.90
2019,04,27,00,09,7.00
2019,04,27,00,10,7.00
2019,04,27,00,11,7.00
2019,04,27,00,12,7.00
2019,04,27,00,13,7.00
2019,04,27,00,14,7.00
2019,04,27,00,15,6.90
2019,04,27,00,16,6.90
2019,04,27,00,17,6.90
2019,04,27,00,18,6.90
2019,04,27,00,19,6.90
2019,04,27,00,20,6.90
2019,04,27,00,21,6.90
2019,04,27,00,22,6.80
2019,04,27,00,23,6.80
2019,04,27,00,24,6.80
2019,04,27,00,25,6.80
2019,04,27,00,26,6.80
2019,04,27,00,27,6.70
2019,04,27,00,28,6.70
2019,04,27,00,29,6.70
2019,04,27,00,30,6.70
2019,04,27,00,31,6.60
2019,04,27,00,32,6.60
2019,04,27,00,33,6.60
2019,04,27,00,34,6.50
2019,04,27,00,35,6.50
2019,04,27,00,36,6.40
2019,04,27,00,37,6.40
2019,04,27,00,38,6.40
2019,04,27,00,39,6.30
2019,04,27,00,40,6.30
2019,04,27,00,41,6.30
2019,04,27,00,42,6.30
2019,04,27,00,43,6.20
2019,04,27,00,44,6.20
2019,04,27,00,45,6.10
2019,04,27,00,46,6.10
2019,04,27,00,47,6.10
2019,04,27,00,48,6.00
2019,04,27,00,49,6.00
2019,04,27,00,50,5.90
2019,04,27,00,51,5.90
2019,04,27,00,52,5.80
2019,04,27,00,53,5.80
2019,04,27,00,54,5.70
2019,04,27,00,55,5.70
2019,04,27,00,56,5.70
2019,04,27,00,57,5.60
2019,04,27,00,58,5.60
2019,04,27,00,59,5.60
2019,04,27,01,00,5.60
2019,04,27,01,01,5.60
2019,04,27,01,02,5.50
2019,04,27,01,03,5.50
2019,04,27,01,04,5.50
2019,04,27,01,05,5.40
2019,04,27,01,06,5.40
2019,04,27,01,07,5.40
2019,04,27,01,08,5.30
2019,04,27,01,09,5.30
2019,04,27,01,10,5.30
2019,04,27,01,11,5.30
2019,04,27,01,12,5.30
2019,04,27,01,13,5.20
2019,04,27,01,14,5.20
2019,04,27,01,15,5.20
2019,04,27,01,16,5.20
2019,04,27,01,17,5.20
2019,04,27,01,18,5.20
2019,04,27,01,19,5.10
2019,04,27,01,20,5.10
2019,04,27,01,21,5.10
2019,04,27,01,22,5.10
2019,04,27,01,23,5.10
2019,04,27,01,24,5.00
2019,04,27,01,25,5.00
2019,04,27,01,26,4.90
2019,04,27,01,27,4.90
2019,04,27,01,28,4.90
2019,04,27,01,29,4.90
2019,04,27,01,30,4.80
2019,04,27,01,31,4.80
2019,04,27,01,32,4.80
2019,04,27,01,33,4.80
2019,04,27,01,34,4.80
2019,04,27,01,35,4.70
2019,04,27,01,36,4.70
2019,04,27,01,37,4.70
2019,04,27,01,38,4.70
2019,04,27,01,39,4.60
2019,04,27,01,40,4.60
2019,04,27,01,41,4.60
2019,04,27,01,42,4.60
2019,04,27,01,43,4.60
2019,04,27,01,44,4.60
2019,04,27,01,45,4.50
2019,04,27,01,46,4.50
2019,04,27,01,47,4.50
2019,04,27,01,48,4.50
2019,04,27,01,49,4.50
2019,04,27,01,50,4.50
2019,04,27,01,51,4.50
2019,04,27,01,52,4.50
2019,04,27,01,53,4.50
2019,04,27,01,54,4.40
2019,04,27,01,55,4.50
2019,04,27,01,56,4.40
2019,04,27,01,57,4.40
2019,04,27,01,58,4.40
2019,04,27,01,59,4.40
2019,04,27,02,00,4.40
2019,04,27,02,01,4.40
2019,04,27,02,02,4.40
2019,04,27,02,03,4.40
2019,04,27,02,04,4.40
2019,04,27,02,05,4.40
2019,04,27,02,06,4.40
2019,04,27,02,07,4.40
2019,04,27,02,08,4.40
2019,04,27,02,09,4.40
2019,04,27,02,10,4.40
2019,04,27,02,11,4.40
2019,04,27,02,12,4.40
2019,04,27,02,13,4.40
2019,04,27,02,14,4.40
2019,04,27,02,15,4.40
2019,04,27,02,16,4.40
2019,04,27,02,17,4.50
2019,04,27,02,18,4.50
2019,04,27,02,19,4.50
2019,04,27,02,20,4.50
2019,04,27,02,21,4.60
2019,04,27,02,22,4.60
2019,04,27,02,23,4.60
2019,04,27,02,24,4.60
2019,04,27,02,25,4.60
2019,04,27,02,26,4.70
2019,04,27,02,27,4.70
2019,04,27,02,28,4.70
2019,04,27,02,29,4.80
2019,04,27,02,30,4.80
2019,04,27,02,31,4.80
2019,04,27,02,32,4.80
2019,04,27,02,33,4.80
2019,04,27,02,34,4.80
2019,04,27,02,35,4.70
2019,04,27,02,36,4.70
2019,04,27,02,37,4.70
2019,04,27,02,38,4.70
2019,04,27,02,39,4.70
2019,04,27,02,40,4.80
2019,04,27,02,41,4.80
2019,04,27,02,42,4.80
2019,04,27,02,43,4.80
2019,04,27,02,44,4.80
2019,04,27,02,45,4.80
2019,04,27,02,46,4.80
2019,04,27,02,47,4.80
2019,04,27,02,48,4.80
2019,04,27,02,49,4.80
2019,04,27,02,50,4.70
2019,04,27,02,51,4.70
2019,04,27,02,52,4.70
2019,04,27,02,53,4.70
2019,04,27,02,54,4.70
2019,04,27,02,55,4.70
2019,04,27,02,56,4.70
2019,04,27,02,57,4.60
2019,04,27,02,58,4.60
2019,04,27,02,59,4.60
2019,04,27,03,00,4.60
2019,04,27,03,01,4.60
2019,04,27,03,02,4.60
2019,04,27,03,03,4.60
2019,04,27,03,04,4.60
2019,04,27,03,05,4.60
2019,04,27,03,06,4.60
2019,04,27,03,07,4.60
2019,04,27,03,08,4.60
2019,04,27,03,09,4.60
2019,04,27,03,10,4.50
2019,04,27,03,11,4.50
2019,04,27,03,12,4.50
2019,04,27,03,13,4.50
2019,04,27,03,14,4.50
2019,04,27,03,15,4.40
2019,04,27,03,16,4.40
2019,04,27,03,17,4.40
2019,04,27,03,18,4.40
2019,04,27,03,19,4.40
2019,04,27,03,20,4.40
2019,04,27,03,21,4.30
2019,04,27,03,22,4.30
2019,04,27,03,23,4.30
2019,04,27,03,24,4.30
2019,04,27,03,25,4.30
2019,04,27,03,26,4.30
2019,04,27,03,27,4.30
2019,04,27,03,28,4.30
2019,04,27,03,29,4.30
2019,04,27,03,30,4.30
2019,04,27,03,31,4.20
2019,04,27,03,32,4.20
2019,04,27,03,33,4.20
2019,04,27,03,34,4.20
2019,04,27,03,35,4.20
2019,04,27,03,36,4.20
2019,04,27,03,37,4.10
2019,04,27,03,38,4.10
2019,04,27,03,39,4.10
2019,04,27,03,40,4.10
2019,04,27,03,41,4.10
2019,04,27,03,42,4.10
2019,04,27,03,43,4.10
2019,04,27,03,44,4.10
2019,04,27,03,45,4.10
2019,04,27,03,46,4.10
2019,04,27,03,47,4.10
2019,04,27,03,48,4.10
2019,04,27,03,49,4.00
2019,04,27,03,50,4.00
2019,04,27,03,51,4.00
2019,04,27,03,52,4.00
2019,04,27,03,53,3.90
2019,04,27,03,54,3.90
2019,04,27,03,55,3.90
2019,04,27,03,56,3.90
2019,04,27,03,57,3.90
2019,04,27,03,58,3.90
2019,04,27,03,59,3.80
2019,04,27,04,00,3.80
2019,04,27,04,01,3.80
2019,04,27,04,02,3.80
2019,04,27,04,03,3.80
2019,04,27,04,04,3.80
2019,04,27,04,05,3.80
2019,04,27,04,06,3.70
2019,04,27,04,07,3.70
2019,04,27,04,08,3.70
2019,04,27,04,09,3.70
2019,04,27,04,10,3.60
2019,04,27,04,11,3.60
2019,04,27,04,12,3.60
2019,04,27,04,13,3.60
2019,04,27,04,14,3.50
2019,04,27,04,15,3.50
2019,04,27,04,16,3.40
2019,04,27,04,17,3.40
2019,04,27,04,18,3.40
2019,04,27,04,19,3.40
2019,04,27,04,20,3.30
2019,04,27,04,21,3.30
2019,04,27,04,22,3.30
2019,04,27,04,23,3.30
2019,04,27,04,24,3.20
2019,04,27,04,25,3.20
2019,04,27,04,26,3.20
2019,04,27,04,27,3.10
2019,04,27,04,28,3.10
2019,04,27,04,29,3.10
2019,04,27,04,30,3.10
2019,04,27,04,31,3.10
2019,04,27,04,32,3.00
2019,04,27,04,33,3.00
2019,04,27,04,34,2.90
2019,04,27,04,35,2.90
2019,04,27,04,36,2.90
2019,04,27,04,37,2.90
2019,04,27,04,38,2.80
2019,04,27,04,39,2.80
2019,04,27,04,40,2.80
2019,04,27,04,41,2.80
2019,04,27,04,42,2.80
2019,04,27,04,43,2.70
2019,04,27,04,44,2.80
2019,04,27,04,45,2.70
2019,04,27,04,46,2.80
2019,04,27,04,47,2.80
2019,04,27,04,48,2.90
2019,04,27,04,49,2.90
2019,04,27,04,50,2.90
2019,04,27,04,51,3.00
2019,04,27,04,52,3.00
2019,04,27,04,53,3.00
2019,04,27,04,54,3.10
2019,04,27,04,55,3.20
2019,04,27,04,56,3.20
2019,04,27,04,57,3.30
2019,04,27,04,58,3.30
2019,04,27,04,59,3.40
2019,04,27,05,00,3.50
2019,04,27,05,01,3.50
2019,04,27,05,02,3.60
2019,04,27,05,03,3.60
2019,04,27,05,04,3.60
2019,04,27,05,05,3.70
2019,04,27,05,06,3.70
2019,04,27,05,07,3.80
2019,04,27,05,08,3.80
2019,04,27,05,09,3.90
2019,04,27,05,10,3.90
2019,04,27,05,11,4.00
2019,04,27,05,12,4.00
2019,04,27,05,13,4.10
2019,04,27,05,14,4.10
2019,04,27,05,15,4.10
2019,04,27,05,16,4.20
2019,04,27,05,17,4.20
2019,04,27,05,18,4.20
2019,04,27,05,19,4.20
2019,04,27,05,20,4.20
2019,04,27,05,21,4.10
2019,04,27,05,22,4.10
2019,04,27,05,23,4.10
2019,04,27,05,24,4.10
2019,04,27,05,25,4.10
2019,04,27,05,26,4.10
2019,04,27,05,27,4.10
2019,04,27,05,28,4.10
2019,04,27,05,29,4.10
2019,04,27,05,30,4.20
2019,04,27,05,31,4.20
2019,04,27,05,32,4.20
2019,04,27,05,33,4.20
2019,04,27,05,34,4.10
2019,04,27,05,35,4.10
2019,04,27,05,36,4.10
2019,04,27,05,37,4.10
2019,04,27,05,38,4.10
2019,04,27,05,39,4.10
2019,04,27,05,40,4.10
2019,04,27,05,41,4.00
2019,04,27,05,42,4.00
2019,04,27,05,43,4.00
2019,04,27,05,44,4.00
2019,04,27,05,45,4.00
2019,04,27,05,46,4.00
2019,04,27,05,47,4.00
2019,04,27,05,48,4.00
2019,04,27,05,49,4.00
2019,04,27,05,50,4.00
2019,04,27,05,51,4.10
2019,04,27,05,52,4.10
2019,04,27,05,53,4.10
2019,04,27,05,54,4.10
2019,04,27,05,55,4.10
2019,04,27,05,56,4.10
2019,04,27,05,57,4.10
2019,04,27,05,58,4.10
2019,04,27,05,59,4.20
2019,04,27,06,00,4.20
2019,04,27,06,01,4.20
2019,04,27,06,02,4.20
2019,04,27,06,03,4.30
2019,04,27,06,04,4.30
2019,04,27,06,05,4.30
2019,04,27,06,06,4.40
2019,04,27,06,07,4.40
2019,04,27,06,08,4.40
2019,04,27,06,09,4.40
2019,04,27,06,10,4.40
2019,04,27,06,11,4.40
2019,04,27,06,12,4.40
2019,04,27,06,13,4.40
2019,04,27,06,14,4.40
2019,04,27,06,15,4.40
2019,04,27,06,16,4.40
2019,04,27,06,17,4.40
2019,04,27,06,18,4.40
2019,04,27,06,19,4.40
2019,04,27,06,20,4.40
2019,04,27,06,21,4.40
2019,04,27,06,22,4.40
2019,04,27,06,23,4.40
2019,04,27,06,24,4.40
2019,04,27,06,25,4.40
2019,04,27,06,26,4.40
2019,04,27,06,27,4.40
2019,04,27,06,28,4.40
2019,04,27,06,29,4.30
2019,04,27,06,30,4.30
2019,04,27,06,31,4.30
2019,04,27,06,32,4.30
2019,04,27,06,33,4.40
2019,04,27,06,34,4.40
2019,04,27,06,35,4.40
2019,04,27,06,36,4.40
2019,04,27,06,37,4.50
2019,04,27,06,38,4.50
2019,04,27,06,39,4.50
2019,04,27,06,40,4.50
2019,04,27,06,41,4.60
2019,04,27,06,42,4.60
2019,04,27,06,43,4.60
2019,04,27,06,44,4.60
2019,04,27,06,45,4.60
2019,04,27,06,46,4.60
2019,04,27,06,47,4.60
2019,04,27,06,48,4.70
2019,04,27,06,49,4.80
2019,04,27,06,50,4.80
2019,04,27,06,51,4.90
2019,04,27,06,52,5.00
2019,04,27,06,53,5.10
2019,04,27,06,54,5.20
2019,04,27,06,55,5.30
2019,04,27,06,56,5.30
2019,04,27,06,57,5.40
2019,04,27,06,58,5.40
2019,04,27,06,59,5.40
2019,04,27,07,00,5.50
2019,04,27,07,01,5.60
2019,04,27,07,02,5.60
2019,04,27,07,03,5.70
2019,04,27,07,04,5.70
2019,04,27,07,05,5.80
2019,04,27,07,06,5.80
2019,04,27,07,07,5.90
2019,04,27,07,08,5.90
2019,04,27,07,09,6.00
2019,04,27,07,10,6.00
2019,04,27,07,11,6.10
2019,04,27,07,12,6.10
2019,04,27,07,13,6.20
2019,04,27,07,14,6.30
2019,04,27,07,15,6.30
2019,04,27,07,16,6.30
2019,04,27,07,17,6.40
2019,04,27,07,18,6.40
2019,04,27,07,19,6.40
2019,04,27,07,20,6.50
2019,04,27,07,21,6.50
2019,04,27,07,22,6.50
2019,04,27,07,23,6.60
2019,04,27,07,24,6.60
2019,04,27,07,25,6.60
2019,04,27,07,26,6.70
2019,04,27,07,27,6.70
2019,04,27,07,28,6.70
2019,04,27,07,29,6.80
2019,04,27,07,30,6.80
2019,04,27,07,31,6.80
2019,04,27,07,32,6.80
2019,04,27,07,33,6.90
2019,04,27,07,34,6.90
2019,04,27,07,35,7.00
2019,04,27,07,36,7.00
2019,04,27,07,37,7.10
2019,04,27,07,38,7.10
2019,04,27,07,39,7.20
2019,04,27,07,40,7.20
2019,04,27,07,41,7.20
2019,04,27,07,42,7.20
2019,04,27,07,43,7.20
2019,04,27,07,44,7.30
2019,04,27,07,45,7.30
2019,04,27,07,46,7.40
2019,04,27,07,47,7.40
2019,04,27,07,48,7.40
2019,04,27,07,49,7.40
2019,04,27,07,50,7.40
2019,04,27,07,51,7.50
2019,04,27,07,52,7.60
2019,04,27,07,53,7.60
2019,04,27,07,54,7.70
2019,04,27,07,55,7.70
2019,04,27,07,56,7.80
2019,04,27,07,57,7.90
2019,04,27,07,58,7.90
2019,04,27,07,59,8.00
2019,04,27,08,00,8.10
2019,04,27,08,01,8.10
2019,04,27,08,02,8.10
2019,04,27,08,03,8.20
2019,04,27,08,04,8.20
2019,04,27,08,05,8.30
2019,04,27,08,06,8.30
2019,04,27,08,07,8.30
2019,04,27,08,08,8.30
2019,04,27,08,09,8.30
2019,04,27,08,10,8.30
2019,04,27,08,11,8.30
2019,04,27,08,12,8.40
2019,04,27,08,13,8.40
2019,04,27,08,14,8.40
2019,04,27,08,15,8.40
2019,04,27,08,16,8.40
2019,04,27,08,17,8.50
2019,04,27,08,18,8.50
2019,04,27,08,19,8.50
2019,04,27,08,20,8.50
2019,04,27,08,21,8.50
2019,04,27,08,22,8.50
2019,04,27,08,23,8.60
2019,04,27,08,24,8.70
2019,04,27,08,25,8.80
2019,04,27,08,26,8.90
2019,04,27,08,27,8.90
2019,04,27,08,28,9.00
2019,04,27,08,29,9.00
2019,04,27,08,30,9.10
2019,04,27,08,31,9.10
2019,04,27,08,32,9.10
2019,04,27,08,33,9.10
2019,04,27,08,34,9.10
2019,04,27,08,35,9.20
2019,04,27,08,36,9.30
2019,04,27,08,37,9.30
2019,04,27,08,38,9.40
2019,04,27,08,39,9.40
2019,04,27,08,40,9.40
2019,04,27,08,41,9.50
2019,04,27,08,42,9.50
2019,04,27,08,43,9.60
2019,04,27,08,44,9.60
2019,04,27,08,45,9.60
2019,04,27,08,46,9.60
2019,04,27,08,47,9.60
2019,04,27,08,48,9.70
2019,04,27,08,49,9.60
2019,04,27,08,50,9.60
2019,04,27,08,51,9.70
2019,04,27,08,52,9.80
2019,04,27,08,53,9.80
2019,04,27,08,54,9.80
2019,04,27,08,55,9.80
2019,04,27,08,56,9.80
2019,04,27,08,57,9.80
2019,04,27,08,58,9.90
2019,04,27,08,59,9.90
2019,04,27,09,00,9.90
2019,04,27,09,01,9.90
2019,04,27,09,02,9.90
2019,04,27,09,03,9.90
2019,04,27,09,04,9.90
2019,04,27,09,05,9.90
2019,04,27,09,06,10.00
2019,04,27,09,07,10.00
2019,04,27,09,08,10.00
2019,04,27,09,09,10.00
2019,04,27,09,10,10.00
2019,04,27,09,11,10.00
2019,04,27,09,12,10.00
2019,04,27,09,13,10.10
2019,04,27,09,14,10.20
2019,04,27,09,15,10.20
2019,04,27,09,16,10.30
2019,04,27,09,17,10.30
2019,04,27,09,18,10.30
2019,04,27,09,19,10.40
2019,04,27,09,20,10.40
2019,04,27,09,21,10.40
2019,04,27,09,22,10.40
2019,04,27,09,23,10.50
2019,04,27,09,24,10.50
2019,04,27,09,25,10.50
2019,04,27,09,26,10.50
2019,04,27,09,27,10.60
2019,04,27,09,28,10.50
2019,04,27,09,29,10.50
2019,04,27,09,30,10.50
2019,04,27,09,31,10.60
2019,04,27,09,32,10.60
2019,04,27,09,33,10.60
2019,04,27,09,34,10.70
2019,04,27,09,35,10.70
2019,04,27,09,36,10.70
2019,04,27,09,37,10.60
2019,04,27,09,38,10.50
2019,04,27,09,39,10.40
2019,04,27,09,40,10.40
2019,04,27,09,41,10.40
2019,04,27,09,42,10.40
2019,04,27,09,43,10.40
2019,04,27,09,44,10.40
2019,04,27,09,45,10.50
2019,04,27,09,46,10.60
2019,04,27,09,47,10.70
2019,04,27,09,48,10.80
2019,04,27,09,49,10.90
2019,04,27,09,50,10.90
2019,04,27,09,51,11.00
2019,04,27,09,52,11.00
2019,04,27,09,53,11.10
2019,04,27,09,54,11.20
2019,04,27,09,55,11.30
2019,04,27,09,56,11.20
2019,04,27,09,57,11.20
2019,04,27,09,58,11.20
2019,04,27,09,59,11.10
2019,04,27,10,00,11.20
2019,04,27,10,01,11.20
2019,04,27,10,02,11.20
2019,04,27,10,03,11.30
2019,04,27,10,04,11.30
2019,04,27,10,05,11.20
2019,04,27,10,06,11.10
2019,04,27,10,07,11.10
2019,04,27,10,08,11.20
2019,04,27,10,09,11.10
2019,04,27,10,10,11.20
2019,04,27,10,11,11.20
2019,04,27,10,12,11.10
2019,04,27,10,13,11.20
2019,04,27,10,14,11.20
2019,04,27,10,15,11.30
2019,04,27,10,16,11.20
2019,04,27,10,17,11.30
2019,04,27,10,18,11.30
2019,04,27,10,19,11.30
2019,04,27,10,20,11.30
2019,04,27,10,21,11.30
2019,04,27,10,22,11.30
2019,04,27,10,23,11.40
2019,04,27,10,24,11.50
2019,04,27,10,25,11.50
2019,04,27,10,26,11.50
2019,04,27,10,27,11.40
2019,04,27,10,28,11.40
2019,04,27,10,29,11.50
2019,04,27,10,30,11.60
2019,04,27,10,31,11.60
2019,04,27,10,32,11.60
2019,04,27,10,33,11.60
2019,04,27,10,34,11.50
2019,04,27,10,35,11.50
2019,04,27,10,36,11.50
2019,04,27,10,37,11.40
2019,04,27,10,38,11.40
2019,04,27,10,39,11.30
2019,04,27,10,40,11.20
2019,04,27,10,41,11.20
2019,04,27,10,42,11.10
2019,04,27,10,43,11.10
2019,04,27,10,44,11.00
2019,04,27,10,45,11.00
2019,04,27,10,46,11.00
2019,04,27,10,47,11.10
2019,04,27,10,48,11.20
2019,04,27,10,49,11.20
2019,04,27,10,50,11.20
2019,04,27,10,51,11.30
2019,04,27,10,52,11.30
2019,04,27,10,53,11.30
2019,04,27,10,54,11.30
2019,04,27,10,55,11.30
2019,04,27,10,56,11.30
2019,04,27,10,57,11.30
2019,04,27,10,58,11.30
2019,04,27,10,59,11.40
2019,04,27,11,00,11.30
2019,04,27,11,01,11.30
2019,04,27,11,02,11.30
2019,04,27,11,03,11.20
2019,04,27,11,04,11.20
2019,04,27,11,05,11.20
2019,04,27,11,06,11.20
2019,04,27,11,07,11.20
2019,04,27,11,08,11.10
2019,04,27,11,09,11.20
2019,04,27,11,10,11.20
2019,04,27,11,11,11.10
2019,04,27,11,12,11.10
2019,04,27,11,13,11.10
2019,04,27,11,14,11.20
2019,04,27,11,15,11.20
2019,04,27,11,16,11.20
2019,04,27,11,17,11.20
2019,04,27,11,18,11.20
2019,04,27,11,19,11.10
2019,04,27,11,20,11.10
2019,04,27,11,21,11.00
2019,04,27,11,22,11.10
2019,04,27,11,23,11.10
2019,04,27,11,24,11.10
2019,04,27,11,25,11.20
2019,04,27,11,26,11.20
2019,04,27,11,27,11.20
2019,04,27,11,28,11.20
2019,04,27,11,29,11.20
2019,04,27,11,30,11.20
2019,04,27,11,31,11.10
2019,04,27,11,32,11.10
2019,04,27,11,33,11.10
2019,04,27,11,34,11.10
2019,04,27,11,35,11.10
2019,04,27,11,36,11.20
2019,04,27,11,37,11.40
2019,04,27,11,38,11.40
2019,04,27,11,39,11.50
2019,04,27,11,40,11.50
2019,04,27,11,41,11.50
2019,04,27,11,42,11.50
2019,04,27,11,43,11.50
2019,04,27,11,44,11.50
2019,04,27,11,45,11.60
2019,04,27,11,46,11.60
2019,04,27,11,47,11.60
2019,04,27,11,48,11.60
2019,04,27,11,49,11.70
2019,04,27,11,50,11.80
2019,04,27,11,51,11.80
2019,04,27,11,52,11.80
2019,04,27,11,53,11.80
2019,04,27,11,54,11.70
2019,04,27,11,55,11.70
2019,04,27,11,56,11.60
2019,04,27,11,57,11.60
2019,04,27,11,58,11.60
2019,04,27,11,59,11.70
2019,04,27,12,00,11.80
2019,04,27,12,01,11.70
2019,04,27,12,02,11.80
2019,04,27,12,03,11.80
2019,04,27,12,04,11.80
2019,04,27,12,05,11.90
2019,04,27,12,06,11.90
2019,04,27,12,07,11.90
2019,04,27,12,08,12.00
2019,04,27,12,09,12.10
2019,04,27,12,10,12.10
2019,04,27,12,11,12.20
2019,04,27,12,12,12.20
2019,04,27,12,13,12.30
2019,04,27,12,14,12.30
2019,04,27,12,15,12.30
2019,04,27,12,16,12.20
2019,04,27,12,17,12.10
2019,04,27,12,18,12.00
2019,04,27,12,19,12.00
2019,04,27,12,20,12.10
2019,04,27,12,21,12.10
2019,04,27,12,22,12.10
2019,04,27,12,23,12.10
2019,04,27,12,24,12.20
2019,04,27,12,25,12.20
2019,04,27,12,26,12.30
2019,04,27,12,27,12.30
2019,04,27,12,28,12.30
2019,04,27,12,29,12.20
2019,04,27,12,30,12.20
2019,04,27,12,31,12.10
2019,04,27,12,32,12.10
2019,04,27,12,33,12.10
2019,04,27,12,34,12.20
2019,04,27,12,35,12.20
2019,04,27,12,36,12.20
2019,04,27,12,37,12.20
2019,04,27,12,38,12.30
2019,04,27,12,39,12.20
2019,04,27,12,40,12.20
2019,04,27,12,41,12.20
2019,04,27,12,42,12.30
2019,04,27,12,43,12.40
2019,04,27,12,44,12.50
2019,04,27,12,45,12.60
2019,04,27,12,46,12.80
2019,04,27,12,47,12.70
2019,04,27,12,48,12.70
2019,04,27,12,49,12.50
2019,04,27,12,50,12.30
2019,04,27,12,51,12.20
2019,04,27,12,52,12.20
2019,04,27,12,53,12.20
2019,04,27,12,54,12.30
2019,04,27,12,55,12.20
2019,04,27,12,56,12.10
2019,04,27,12,57,12.10
2019,04,27,12,58,12.10
2019,04,27,12,59,12.10
2019,04,27,13,00,12.10
2019,04,27,13,01,12.10
2019,04,27,13,02,12.10
2019,04,27,13,03,12.20
2019,04,27,13,04,12.30
2019,04,27,13,05,12.30
2019,04,27,13,06,12.30
2019,04,27,13,07,12.40
2019,04,27,13,08,12.40
2019,04,27,13,09,12.50
2019,04,27,13,10,12.50
2019,04,27,13,11,12.60
2019,04,27,13,12,12.60
2019,04,27,13,13,12.60
2019,04,27,13,14,12.50
2019,04,27,13,15,12.40
2019,04,27,13,16,12.40
2019,04,27,13,17,12.50
2019,04,27,13,18,12.50
2019,04,27,13,19,12.40
2019,04,27,13,20,12.30
2019,04,27,13,21,12.20
2019,04,27,13,22,12.20
2019,04,27,13,23,12.10
2019,04,27,13,24,12.20
2019,04,27,13,25,12.20
2019,04,27,13,26,12.40
2019,04,27,13,27,12.50
2019,04,27,13,28,12.60
2019,04,27,13,29,12.80
2019,04,27,13,30,12.90
2019,04,27,13,31,12.90
2019,04,27,13,32,12.90
2019,04,27,13,33,12.90
2019,04,27,13,34,13.00
2019,04,27,13,35,13.20
2019,04,27,13,36,13.30
2019,04,27,13,37,13.30
2019,04,27,13,38,13.30
2019,04,27,13,39,13.20
2019,04,27,13,40,13.10
2019,04,27,13,41,13.10
2019,04,27,13,42,13.10
2019,04,27,13,43,13.10
2019,04,27,13,44,13.00
2019,04,27,13,45,12.90
2019,04,27,13,46,12.80
2019,04,27,13,47,12.80
2019,04,27,13,48,12.80
2019,04,27,13,49,12.70
2019,04,27,13,50,12.70
2019,04,27,13,51,12.80
2019,04,27,13,52,12.80
2019,04,27,13,53,12.90
2019,04,27,13,54,13.00
2019,04,27,13,55,13.10
2019,04,27,13,56,13.00
2019,04,27,13,57,13.00
2019,04,27,13,58,13.00
2019,04,27,13,59,13.10
2019,04,27,14,00,13.30
2019,04,27,14,01,13.40
2019,04,27,14,02,13.40
2019,04,27,14,03,13.50
2019,04,27,14,04,13.60
2019,04,27,14,05,13.60
2019,04,27,14,06,13.60
2019,04,27,14,07,13.60
2019,04,27,14,08,13.70
2019,04,27,14,09,13.70
2019,04,27,14,10,13.70
2019,04,27,14,11,13.70
2019,04,27,14,12,13.70
2019,04,27,14,13,13.70
2019,04,27,14,14,13.70
2019,04,27,14,15,13.70
2019,04,27,14,16,13.70
2019,04,27,14,17,13.70
2019,04,27,14,18,13.70
2019,04,27,14,19,13.60
2019,04,27,14,20,13.60
2019,04,27,14,21,13.50
2019,04,27,14,22,13.40
2019,04,27,14,23,13.40
2019,04,27,14,24,13.30
2019,04,27,14,25,13.30
2019,04,27,14,26,13.30
2019,04,27,14,27,13.30
2019,04,27,14,28,13.30
2019,04,27,14,29,13.40
2019,04,27,14,30,13.30
2019,04,27,14,31,13.40
2019,04,27,14,32,13.40
2019,04,27,14,33,13.50
2019,04,27,14,34,13.50
2019,04,27,14,35,13.60
2019,04,27,14,36,13.60
2019,04,27,14,37,13.60
2019,04,27,14,38,13.70
2019,04,27,14,39,13.70
2019,04,27,14,40,13.70
2019,04,27,14,41,13.60
2019,04,27,14,42,13.50
2019,04,27,14,43,13.50
2019,04,27,14,44,13.50
2019,04,27,14,45,13.50
2019,04,27,14,46,13.50
2019,04,27,14,47,13.50
2019,04,27,14,48,13.40
2019,04,27,14,49,13.40
2019,04,27,14,50,13.40
2019,04,27,14,51,13.40
2019,04,27,14,52,13.30
2019,04,27,14,53,13.30
2019,04,27,14,54,13.30
2019,04,27,14,55,13.30
2019,04,27,14,56,13.30
2019,04,27,14,57,13.30
2019,04,27,14,58,13.30
2019,04,27,14,59,13.30
2019,04,27,15,00,13.30
2019,04,27,15,01,13.10
2019,04,27,15,02,13.10
2019,04,27,15,03,13.00
2019,04,27,15,04,13.00
2019,04,27,15,05,13.10
2019,04,27,15,06,13.20
2019,04,27,15,07,13.20
2019,04,27,15,08,13.30
2019,04,27,15,09,13.40
2019,04,27,15,10,13.40
2019,04,27,15,11,13.50
2019,04,27,15,12,13.50
2019,04,27,15,13,13.60
2019,04,27,15,14,13.70
2019,04,27,15,15,13.80
2019,04,27,15,16,13.80
2019,04,27,15,17,13.80
2019,04,27,15,18,13.90
2019,04,27,15,19,14.00
2019,04,27,15,20,14.00
2019,04,27,15,21,14.00
2019,04,27,15,22,14.10
2019,04,27,15,23,14.20
2019,04,27,15,24,14.10
2019,04,27,15,25,14.10
2019,04,27,15,26,14.10
2019,04,27,15,27,14.00
2019,04,27,15,28,14.00
2019,04,27,15,29,14.00
2019,04,27,15,30,14.00
2019,04,27,15,31,14.00
2019,04,27,15,32,13.90
2019,04,27,15,33,14.00
2019,04,27,15,34,13.90
2019,04,27,15,35,14.00
2019,04,27,15,36,14.00
2019,04,27,15,37,14.00
2019,04,27,15,38,14.00
2019,04,27,15,39,14.00
2019,04,27,15,40,14.00
2019,04,27,15,41,14.00
2019,04,27,15,42,14.10
2019,04,27,15,43,14.10
2019,04,27,15,44,14.10
2019,04,27,15,45,14.10
2019,04,27,15,46,14.10
2019,04,27,15,47,14.10
2019,04,27,15,48,14.10
2019,04,27,15,49,14.20
2019,04,27,15,50,14.20
2019,04,27,15,51,14.20
2019,04,27,15,52,14.20
2019,04,27,15,53,14.20
2019,04,27,15,54,14.20
2019,04,27,15,55,14.20
2019,04,27,15,56,14.20
2019,04,27,15,57,14.20
2019,04,27,15,58,14.20
2019,04,27,15,59,14.10
2019,04,27,16,00,14.00
2019,04,27,16,01,14.00
2019,04,27,16,02,14.10
2019,04,27,16,03,14.10
2019,04,27,16,04,14.20
2019,04,27,16,05,14.40
2019,04,27,16,06,14.40
2019,04,27,16,07,14.50
2019,04,27,16,08,14.50
2019,04,27,16,09,14.50
2019,04,27,16,10,14.50
2019,04,27,16,11,14.50
2019,04,27,16,12,14.50
2019,04,27,16,13,14.40
2019,04,27,16,14,14.40
2019,04,27,16,15,14.40
2019,04,27,16,16,14.40
2019,04,27,16,17,14.40
2019,04,27,16,18,14.40
2019,04,27,16,19,14.30
2019,04,27,16,20,14.40
2019,04,27,16,21,14.40
2019,04,27,16,22,14.40
2019,04,27,16,23,14.40
2019,04,27,16,24,14.30
2019,04,27,16,25,14.30
2019,04,27,16,26,14.30
2019,04,27,16,27,14.30
2019,04,27,16,28,14.30
2019,04,27,16,29,14.30
2019,04,27,16,30,14.30
2019,04,27,16,31,14.40
2019,04,27,16,32,14.40
2019,04,27,16,33,14.40
2019,04,27,16,34,14.30
2019,04,27,16,35,14.40
2019,04,27,16,36,14.30
2019,04,27,16,37,14.30
2019,04,27,16,38,14.30
2019,04,27,16,39,14.30
2019,04,27,16,40,14.30
2019,04,27,16,41,14.30
2019,04,27,16,42,14.30
2019,04,27,16,43,14.30
2019,04,27,16,44,14.30
2019,04,27,16,45,14.30
2019,04,27,16,46,14.30
2019,04,27,16,47,14.30
2019,04,27,16,48,14.30
2019,04,27,16,49,14.40
2019,04,27,16,50,14.50
2019,04,27,16,51,14.50
2019,04,27,16,52,14.40
2019,04,27,16,53,14.30
2019,04,27,16,54,14.30
2019,04,27,16,55,14.30
2019,04,27,16,56,14.30
2019,04,27,16,57,14.30
2019,04,27,16,58,14.30
2019,04,27,16,59,14.40
2019,04,27,17,00,14.40
2019,04,27,17,01,14.40
2019,04,27,17,02,14.40
2019,04,27,17,03,14.40
2019,04,27,17,04,14.40
2019,04,27,17,05,14.40
2019,04,27,17,06,14.40
2019,04,27,17,07,14.40
2019,04,27,17,08,14.50
2019,04,27,17,09,14.50
2019,04,27,17,10,14.50
2019,04,27,17,11,14.50
2019,04,27,17,12,14.60
2019,04,27,17,13,14.70
2019,04,27,17,14,14.70
2019,04,27,17,15,14.60
2019,04,27,17,16,14.60
2019,04,27,17,17,14.60
2019,04,27,17,18,14.60
2019,04,27,17,19,14.60
2019,04,27,17,20,14.60
2019,04,27,17,21,14.60
2019,04,27,17,22,14.50
2019,04,27,17,23,14.50
2019,04,27,17,24,14.50
2019,04,27,17,25,14.40
2019,04,27,17,26,14.40
2019,04,27,17,27,14.40
2019,04,27,17,28,14.40
2019,04,27,17,29,14.40
2019,04,27,17,30,14.50
2019,04,27,17,31,14.50
2019,04,27,17,32,14.50
2019,04,27,17,33,14.50
2019,04,27,17,34,14.50
2019,04,27,17,35,14.50
2019,04,27,17,36,14.60
2019,04,27,17,37,14.60
2019,04,27,17,38,14.60
2019,04,27,17,39,14.60
2019,04,27,17,40,14.60
2019,04,27,17,41,14.60
2019,04,27,17,42,14.60
2019,04,27,17,43,14.60